ON7AMI-5 Weather Reports


Display with metric or nautical units.
time (UTC)temp
F
wind
direction
speed
MPH
gust
MPH
rain 1hr
in
rain 24hr
in
rain mn
in
humidity
%
barometer
mb
20260507105035 61 217 3.0 6.0 0.00 0.00 0.00 88 1017.6
20260507104535 61 210 0.0 2.0 0.00 0.00 0.00 88 1017.6
20260507104035 61 300 0.0 0.0 0.00 0.00 0.00 88 1017.6
20260507103536 61 336 0.0 0.0 0.00 0.00 0.00 88 1017.6
20260507103039 61 310 0.0 0.0 0.00 0.00 0.00 89 1017.6
20260507102532 61 293 3.0 6.0 0.00 0.00 0.00 89 1017.7
20260507102035 61 83 1.0 4.0 0.00 0.00 0.00 89 1017.7
20260507101536 62 105 0.0 2.0 0.00 0.00 0.00 89 1017.7
20260507101028 61 104 0.0 2.0 0.00 0.00 0.00 89 1017.6
20260507100535 62 83 0.0 2.0 0.00 0.00 0.00 90 1017.6
20260507100035 63 120 2.0 6.0 0.00 0.00 0.00 90 1017.6
20260507095529 63 116 4.0 8.0 0.00 0.00 0.00 90 1017.5
20260507095035 62 135 7.0 10.0 0.00 0.00 0.00 90 1017.5
20260507094534 62 105 7.0 12.0 0.00 0.00 0.00 90 1017.5
20260507094034 63 160 6.0 10.0 0.00 0.00 0.00 90 1017.4
20260507093534 63 116 3.0 10.0 0.00 0.00 0.00 91 1017.4
20260507093045 62 345 0.0 2.0 0.00 0.00 0.00 91 1017.4
20260507092531 62 67 4.0 8.0 0.00 0.00 0.00 91 1017.4
20260507092035 61 135 4.0 8.0 0.00 0.00 0.00 91 1017.2
20260507091535 60 1 3.0 6.0 0.00 0.00 0.00 92 1017.4
20260507091028 60 20 2.0 10.0 0.00 0.00 0.00 92 1017.4
20260507090534 59 48 3.0 8.0 0.00 0.00 0.00 92 1017.3
20260507090027 59 92 2.0 4.0 0.00 0.00 0.00 92 1017.3
20260507085534 58 156 2.0 4.0 0.00 0.00 0.00 92 1017.3
20260507085035 58 20 3.0 6.0 0.00 0.00 0.00 92 1017.2
20260507084535 58 26 5.0 10.0 0.00 0.00 0.00 93 1017.2
20260507084035 59 32 2.0 4.0 0.00 0.00 0.00 93 1017.2
20260507083535 59 81 1.0 4.0 0.00 0.00 0.00 93 1017.2
20260507083034 58 118 3.0 6.0 0.00 0.00 0.00 93 1017.1
20260507082536 58 83 0.0 2.0 0.00 0.00 0.00 93 1017.1
20260507082034 58 116 2.0 4.0 0.00 0.00 0.00 93 1017.1
20260507081534 57 167 1.0 4.0 0.00 0.01 0.00 94 1017.1
20260507081035 56 45 0.0 0.0 0.00 0.01 0.00 94 1017.2
20260507080535 56 342 0.0 2.0 0.00 0.01 0.00 94 1017.2
20260507080034 56 120 0.0 0.0 0.00 0.01 0.00 94 1017.2
20260507075535 56 27 0.0 6.0 0.00 0.01 0.00 94 1017.2
20260507075035 55 173 0.0 4.0 0.00 0.01 0.00 94 1017.2
20260507074534 55 188 0.0 2.0 0.00 0.01 0.00 94 1017.2
20260507074035 54 89 1.0 4.0 0.00 0.01 0.00 94 1017.2
20260507073534 54 114 2.0 6.0 0.00 0.01 0.00 95 1017.2
20260507073035 54 21 0.0 2.0 0.00 0.01 0.00 95 1017.1
20260507072535 54 152 0.0 2.0 0.00 0.01 0.00 95 1017.1
20260507072035 54 85 0.0 2.0 0.00 0.01 0.00 95 1017.0
20260507071535 53 71 0.0 2.0 0.00 0.01 0.00 95 1016.9
20260507071035 53 45 0.0 6.0 0.00 0.01 0.00 95 1016.9
20260507070535 53 92 1.0 4.0 0.00 0.01 0.00 95 1016.8
20260507070034 52 136 2.0 6.0 0.00 0.01 0.00 95 1016.8
20260507065536 52 135 1.0 4.0 0.00 0.01 0.00 95 1016.8
20260507065035 52 134 2.0 6.0 0.00 0.01 0.00 95 1016.9
20260507064534 52 174 0.0 4.0 0.00 0.01 0.00 95 1016.9
20260507064035 52 45 0.0 4.0 0.00 0.01 0.00 95 1016.9
20260507063535 51 45 0.0 0.0 0.00 0.01 0.00 95 1016.8
20260507063035 51 45 0.0 0.0 0.00 0.01 0.00 96 1016.7
20260507062535 50 45 0.0 0.0 0.00 0.01 0.00 96 1016.6
20260507062035 50 45 0.0 0.0 0.00 0.01 0.00 96 1016.6
20260507061535 49 45 0.0 0.0 0.00 0.01 0.00 95 1016.5
20260507061035 49 45 0.0 0.0 0.00 0.01 0.00 95 1016.5
20260507060535 49 45 0.0 0.0 0.00 0.01 0.00 95 1016.5
20260507060028 49 45 0.0 0.0 0.00 0.01 0.00 95 1016.5
20260507055534 48 45 0.0 0.0 0.00 0.01 0.00 95 1016.4
20260507055034 48 45 0.0 0.0 0.00 0.01 0.00 95 1016.4
20260507054528 48 45 0.0 0.0 0.00 0.01 0.00 95 1016.3
20260507054035 48 45 0.0 0.0 0.00 0.01 0.00 95 1016.3
20260507053535 48 45 0.0 0.0 0.00 0.01 0.00 95 1016.2
20260507053029 48 45 0.0 0.0 0.00 0.01 0.00 95 1016.1
20260507052535 47 45 0.0 0.0 0.00 0.01 0.00 95 1016.0
20260507052035 47 45 0.0 0.0 0.00 0.01 0.00 95 1016.0
20260507051535 47 45 0.0 0.0 0.00 0.01 0.00 95 1016.0
20260507051035 47 45 0.0 0.0 0.00 0.01 0.00 95 1015.9
20260507050534 47 45 0.0 0.0 0.00 0.01 0.00 95 1015.8
20260507050035 47 45 0.0 0.0 0.00 0.01 0.00 95 1015.8
20260507045535 47 45 0.0 0.0 0.00 0.01 0.00 95 1015.8
20260507045034 46 45 0.0 0.0 0.00 0.01 0.00 95 1015.8
20260507044535 46 45 0.0 0.0 0.00 0.01 0.00 95 1015.8
20260507044035 46 45 0.0 0.0 0.00 0.01 0.00 94 1015.7
20260507043534 46 45 0.0 0.0 0.00 0.01 0.00 94 1015.7
20260507043035 46 45 0.0 0.0 0.00 0.01 0.00 94 1015.8
20260507042534 46 45 0.0 0.0 0.00 0.01 0.00 94 1015.7
20260507042035 46 45 0.0 0.0 0.00 0.01 0.00 94 1015.7
20260507041534 46 45 0.0 0.0 0.00 0.01 0.00 94 1015.7
20260507041035 46 45 0.0 0.0 0.00 0.01 0.00 94 1015.7
20260507040533 46 45 0.0 0.0 0.00 0.01 0.00 94 1015.6
20260507040033 46 45 0.0 0.0 0.00 0.01 0.00 94 1015.5
20260507035533 46 45 0.0 0.0 0.00 0.01 0.00 94 1015.5
20260507035033 46 45 0.0 0.0 0.00 0.01 0.00 94 1015.5
20260507034533 46 45 0.0 0.0 0.00 0.01 0.00 93 1015.5
20260507034033 46 45 0.0 0.0 0.00 0.01 0.00 93 1015.5
20260507033533 45 45 0.0 0.0 0.00 0.01 0.00 93 1015.5
20260507033033 45 45 1.0 2.0 0.00 0.01 0.00 93 1015.5
20260507032533 46 272 0.0 0.0 0.00 0.01 0.00 93 1015.4
20260507032033 46 272 0.0 0.0 0.00 0.01 0.00 93 1015.4
20260507031533 45 271 0.0 0.0 0.00 0.01 0.00 93 1015.3
20260507031033 45 271 0.0 0.0 0.00 0.01 0.00 93 1015.3
20260507030533 45 271 0.0 0.0 0.00 0.01 0.00 93 1015.3
20260507030033 45 271 0.0 0.0 0.00 0.01 0.00 92 1015.3
20260507025533 45 271 0.0 0.0 0.00 0.01 0.00 92 1015.3
20260507025033 45 271 0.0 0.0 0.00 0.01 0.00 92 1015.2
20260507024533 45 271 0.0 0.0 0.00 0.01 0.00 92 1015.2
20260507024033 45 271 0.0 0.0 0.00 0.01 0.00 92 1015.2
20260507023533 45 271 0.0 0.0 0.00 0.01 0.00 92 1015.2
20260507023033 45 271 0.0 2.0 0.00 0.01 0.00 92 1015.1
20260507022533 45 271 0.0 0.0 0.00 0.01 0.00 91 1015.1
20260507022032 45 271 0.0 0.0 0.00 0.01 0.00 91 1015.1
20260507021534 45 271 0.0 0.0 0.00 0.01 0.00 91 1015.1
20260507021033 45 271 0.0 0.0 0.00 0.01 0.00 91 1015.0
20260507020527 45 271 0.0 0.0 0.00 0.01 0.00 91 1015.0
20260507020033 45 271 0.0 0.0 0.00 0.01 0.00 91 1014.9
20260507015534 45 271 0.0 0.0 0.00 0.01 0.00 91 1014.9
20260507015026 44 271 0.0 0.0 0.00 0.01 0.00 91 1014.9
20260507014534 44 271 0.0 2.0 0.00 0.01 0.00 91 1014.8
20260507014033 44 271 0.0 0.0 0.00 0.01 0.00 91 1014.8
20260507013533 44 271 0.0 0.0 0.00 0.01 0.00 90 1014.8
20260507013033 44 271 0.0 0.0 0.00 0.01 0.00 90 1014.7
20260507012533 44 271 0.0 0.0 0.00 0.01 0.00 90 1014.7
20260507012026 44 271 0.0 0.0 0.00 0.01 0.00 90 1014.7
20260507011533 44 271 0.0 0.0 0.00 0.01 0.00 90 1014.7
20260507011033 44 271 0.0 0.0 0.00 0.01 0.00 90 1014.7
20260507010529 44 271 0.0 0.0 0.00 0.01 0.00 90 1014.7
20260507010033 44 271 0.0 0.0 0.00 0.01 0.00 90 1014.8
20260507005533 44 271 0.0 0.0 0.00 0.01 0.00 90 1014.8
20260507005033 44 271 0.0 0.0 0.00 0.01 0.00 90 1014.7
20260507004533 44 271 0.0 0.0 0.00 0.01 0.00 89 1014.7
20260507004033 44 271 0.0 0.0 0.00 0.01 0.00 89 1014.7
20260507003533 44 271 0.0 0.0 0.00 0.01 0.00 89 1014.7
20260507003033 44 271 0.0 0.0 0.00 0.01 0.00 89 1014.6
20260507002533 44 271 0.0 0.0 0.00 0.01 0.00 89 1014.6
20260507002033 44 271 0.0 0.0 0.00 0.01 0.00 89 1014.7
20260507001538 44 271 0.0 0.0 0.00 0.01 0.00 89 1014.6
20260507001033 44 271 0.0 0.0 0.00 0.01 0.00 89 1014.6
20260507000532 44 271 0.0 0.0 0.00 0.01 0.00 89 1014.6
20260507000033 44 271 0.0 0.0 0.00 0.01 0.01 89 1014.6
20260506235535 44 271 0.0 0.0 0.00 0.01 0.01 88 1014.6
20260506235034 44 271 0.0 0.0 0.00 0.01 0.01 88 1014.5
20260506234535 44 271 0.0 0.0 0.00 0.01 0.01 88 1014.5
20260506234034 44 271 0.0 0.0 0.00 0.01 0.01 88 1014.5
20260506233531 44 271 0.0 0.0 0.00 0.01 0.01 88 1014.4
20260506233034 44 271 0.0 0.0 0.00 0.01 0.01 88 1014.4
20260506232539 44 271 0.0 0.0 0.00 0.01 0.01 88 1014.4
20260506232039 44 271 0.0 0.0 0.00 0.01 0.01 88 1014.4
20260506231535 44 271 0.0 0.0 0.00 0.01 0.01 88 1014.4
20260506231038 43 271 0.0 0.0 0.00 0.01 0.01 88 1014.3
20260506230538 43 271 0.0 0.0 0.00 0.01 0.01 88 1014.3
20260506230039 43 271 0.0 0.0 0.00 0.01 0.01 87 1014.2
20260506225539 43 271 0.0 0.0 0.00 0.01 0.01 87 1014.2
20260506225035 43 271 0.0 0.0 0.00 0.01 0.01 87 1014.2
20260506224539 44 271 0.0 0.0 0.00 0.01 0.01 87 1014.2
20260506224031 44 271 0.0 0.0 0.00 0.01 0.01 87 1014.2
20260506223539 44 271 0.0 0.0 0.00 0.01 0.01 87 1014.2
20260506223038 44 271 0.0 0.0 0.00 0.01 0.01 87 1014.1
20260506222528 44 271 0.0 0.0 0.00 0.01 0.01 87 1014.1
20260506222039 44 271 0.0 0.0 0.00 0.01 0.01 87 1014.0
20260506221530 44 271 0.0 0.0 0.00 0.01 0.01 87 1014.0
20260506221032 44 271 0.0 0.0 0.00 0.01 0.01 87 1014.0
20260506220532 45 271 0.0 0.0 0.00 0.01 0.01 87 1014.0
20260506220034 45 271 0.0 0.0 0.00 0.01 0.01 87 1014.0
20260506215535 45 271 0.0 0.0 0.00 0.01 0.01 86 1014.0
20260506215034 45 271 0.0 0.0 0.00 0.01 0.01 86 1013.9
20260506214535 45 271 0.0 0.0 0.00 0.01 0.01 86 1013.9
20260506214035 46 271 0.0 0.0 0.00 0.01 0.01 86 1014.0
20260506213535 46 271 0.0 0.0 0.00 0.01 0.01 86 1014.0
20260506213042 46 271 0.0 0.0 0.00 0.01 0.01 86 1014.0
20260506212535 47 271 0.0 0.0 0.00 0.01 0.01 86 1014.0
20260506212036 47 271 0.0 0.0 0.00 0.01 0.01 86 1013.8
20260506211535 47 271 0.0 0.0 0.00 0.01 0.01 86 1013.7
20260506211036 48 271 0.0 0.0 0.00 0.01 0.01 86 1013.7
20260506210536 48 271 0.0 0.0 0.00 0.01 0.01 86 1013.7
20260506210035 48 271 0.0 0.0 0.00 0.01 0.01 86 1013.7
20260506205536 49 271 0.0 0.0 0.00 0.01 0.01 86 1013.7
20260506205035 49 271 0.0 0.0 0.00 0.01 0.01 86 1013.7
20260506204536 49 271 0.0 0.0 0.00 0.01 0.01 86 1013.6
20260506204028 50 271 0.0 0.0 0.00 0.01 0.01 86 1013.6
20260506203535 50 271 0.0 0.0 0.00 0.01 0.01 86 1013.6
20260506203036 50 271 0.0 0.0 0.00 0.01 0.01 86 1013.5
20260506202529 51 271 0.0 0.0 0.00 0.01 0.01 86 1013.4
20260506202035 51 271 0.0 0.0 0.00 0.01 0.01 86 1013.3
20260506201536 52 271 0.0 2.0 0.00 0.01 0.01 86 1013.3
20260506201029 52 271 0.0 2.0 0.00 0.01 0.01 86 1013.3
20260506200536 52 324 0.0 2.0 0.00 0.01 0.01 86 1013.2
20260506200035 53 343 0.0 0.0 0.00 0.01 0.01 86 1013.2
20260506195531 53 9 1.0 4.0 0.00 0.01 0.01 86 1013.2
20260506195036 53 292 0.0 2.0 0.00 0.01 0.01 86 1013.2
20260506194535 54 24 0.0 2.0 0.00 0.01 0.01 86 1013.1
20260506194030 54 94 1.0 4.0 0.00 0.01 0.01 87 1013.1
20260506193536 54 173 4.0 12.0 0.00 0.01 0.01 87 1013.0
20260506193035 54 16 3.0 8.0 0.00 0.01 0.01 87 1013.0
20260506192536 54 64 0.0 0.0 0.00 0.01 0.01 87 1013.0
20260506192035 54 357 1.0 4.0 0.00 0.01 0.01 87 1012.9
20260506191535 54 357 5.0 8.0 0.00 0.01 0.01 87 1012.9
20260506191035 54 32 2.0 6.0 0.00 0.01 0.01 87 1012.9
20260506190535 54 315 4.0 8.0 0.00 0.01 0.01 87 1012.8
20260506190035 54 336 5.0 8.0 0.00 0.01 0.01 87 1012.8
20260506185535 54 332 5.0 8.0 0.00 0.01 0.01 87 1012.5
20260506185035 55 331 7.0 12.0 0.00 0.01 0.01 87 1012.5
20260506184536 55 316 6.0 10.0 0.00 0.01 0.01 87 1012.5
20260506184035 55 312 5.0 10.0 0.00 0.01 0.01 87 1012.5
20260506183535 55 356 4.0 6.0 0.00 0.01 0.01 87 1012.4
20260506183035 55 326 6.0 10.0 0.00 0.01 0.01 87 1012.4
20260506182536 55 311 5.0 8.0 0.00 0.01 0.01 87 1012.3
20260506182035 56 356 3.0 10.0 0.00 0.01 0.01 87 1012.3
20260506181535 56 335 3.0 8.0 0.00 0.01 0.01 87 1012.3
20260506181036 56 329 8.0 12.0 0.00 0.01 0.01 87 1012.2
20260506180535 56 349 11.0 18.0 0.00 0.01 0.01 87 1012.1
20260506180036 56 326 8.0 16.0 0.00 0.01 0.01 87 1012.2
20260506175537 56 338 6.0 14.0 0.00 0.01 0.01 87 1012.1
20260506175037 57 351 6.0 12.0 0.00 0.01 0.01 87 1012.0
20260506174537 57 335 8.0 14.0 0.00 0.01 0.01 87 1011.8
20260506174035 57 340 9.0 14.0 0.00 0.01 0.01 87 1011.7
20260506173536 58 353 10.0 16.0 0.00 0.01 0.01 86 1011.7
20260506173035 58 331 6.0 10.0 0.00 0.01 0.01 86 1011.6
20260506172535 59 347 13.0 20.0 0.00 0.01 0.01 87 1011.5
20260506172035 59 355 9.0 16.0 0.00 0.01 0.01 87 1011.4
20260506171536 60 328 8.0 14.0 0.00 0.01 0.01 87 1011.3
20260506171030 60 11 9.0 14.0 0.00 0.01 0.01 87 1011.2
20260506170536 60 338 19.0 30.0 0.00 0.01 0.01 87 1011.2
20260506170035 60 342 9.0 14.0 0.00 0.01 0.01 87 1011.2
20260506165536 60 350 11.0 20.0 0.00 0.01 0.01 87 1011.2
20260506165035 60 2 16.0 26.0 0.00 0.01 0.01 87 1011.1
20260506164535 60 7 12.0 18.0 0.00 0.01 0.01 87 1011.1
20260506164036 60 350 12.0 20.0 0.00 0.01 0.01 87 1011.1
20260506163535 60 350 13.0 26.0 0.00 0.01 0.01 87 1011.2
20260506163035 60 14 16.0 30.0 0.00 0.01 0.01 87 1011.2
20260506162535 61 13 7.0 12.0 0.00 0.01 0.01 87 1011.1
20260506162035 61 345 12.0 20.0 0.00 0.01 0.01 87 1011.1
20260506161529 61 0 17.0 26.0 0.00 0.01 0.01 87 1011.2
20260506161035 61 359 19.0 28.0 0.00 0.01 0.01 87 1011.1
20260506160536 62 3 14.0 20.0 0.00 0.01 0.01 87 1011.1
20260506160030 62 10 13.0 28.0 0.00 0.01 0.01 88 1011.0
20260506155535 62 359 11.0 22.0 0.00 0.01 0.01 88 1011.0
20260506155035 62 11 20.0 28.0 0.00 0.01 0.01 88 1010.9
20260506154529 62 13 17.0 24.0 0.00 0.01 0.01 88 1010.9
20260506154036 60 12 13.0 26.0 0.00 0.01 0.01 88 1010.9
20260506153535 59 357 16.0 24.0 0.00 0.01 0.01 88 1010.9
20260506153028 59 11 13.0 20.0 0.00 0.01 0.01 88 1011.0
20260506152535 60 20 16.0 24.0 0.00 0.01 0.01 89 1011.1
20260506152035 61 2 11.0 20.0 0.00 0.01 0.01 89 1011.1
20260506151535 61 8 14.0 20.0 0.00 0.01 0.01 89 1010.9
20260506151036 61 5 15.0 22.0 0.00 0.01 0.01 89 1010.9
20260506150535 61 17 11.0 18.0 0.00 0.01 0.01 89 1010.9
20260506150035 63 4 9.0 16.0 0.00 0.01 0.01 89 1010.9
20260506145535 62 5 11.0 18.0 0.00 0.01 0.01 89 1010.9
20260506145036 61 359 11.0 18.0 0.00 0.01 0.01 89 1010.9
20260506144535 61 7 15.0 22.0 0.00 0.01 0.01 90 1010.8
20260506144035 61 26 14.0 20.0 0.00 0.01 0.01 90 1010.8
20260506143535 61 15 13.0 24.0 0.00 0.01 0.01 90 1010.8
20260506143035 61 24 9.0 18.0 0.00 0.01 0.01 90 1010.8
20260506142536 60 13 10.0 18.0 0.00 0.01 0.01 90 1010.8
20260506142035 60 18 17.0 22.0 0.00 0.01 0.01 91 1010.8
20260506141535 61 356 9.0 16.0 0.00 0.01 0.01 91 1010.8
20260506141035 60 2 11.0 16.0 0.00 0.01 0.01 91 1010.8
20260506140535 60 22 9.0 16.0 0.00 0.01 0.01 91 1010.8
20260506140034 60 32 10.0 18.0 0.00 0.01 0.01 91 1010.8
20260506135535 61 7 19.0 26.0 0.00 0.01 0.01 91 1010.9
20260506135036 61 20 9.0 14.0 0.00 0.01 0.01 91 1010.9
20260506134535 61 3 14.0 22.0 0.00 0.01 0.01 91 1010.8
20260506134036 61 341 13.0 18.0 0.00 0.01 0.01 91 1011.0
20260506133536 60 17 13.0 20.0 0.00 0.01 0.01 92 1011.1
20260506133035 60 33 10.0 16.0 0.00 0.01 0.01 92 1011.1
20260506132536 60 11 14.0 18.0 0.00 0.01 0.01 92 1011.1
20260506132035 60 359 6.0 10.0 0.00 0.01 0.01 92 1011.1
20260506131536 60 3 18.0 26.0 0.00 0.01 0.01 92 1011.1
20260506131035 59 4 6.0 10.0 0.00 0.01 0.01 92 1011.1
20260506130531 58 17 15.0 20.0 0.00 0.01 0.01 92 1011.1
20260506130035 58 359 5.0 10.0 0.00 0.01 0.01 92 1011.1
20260506125535 58 10 13.0 18.0 0.00 0.01 0.01 93 1011.0
20260506125035 57 355 3.0 10.0 0.00 0.01 0.01 93 1011.0
20260506124536 57 355 9.0 14.0 0.00 0.01 0.01 93 1011.1
20260506124035 57 3 13.0 16.0 0.00 0.01 0.01 93 1011.1
20260506123535 57 8 11.0 18.0 0.00 0.01 0.01 93 1011.0
20260506123035 57 1 7.0 16.0 0.00 0.01 0.01 93 1010.9
20260506122535 59 334 8.0 14.0 0.00 0.01 0.01 93 1010.9
20260506122028 59 11 9.0 14.0 0.00 0.01 0.01 93 1011.0
20260506121535 58 350 10.0 14.0 0.00 0.01 0.01 93 1011.0
20260506121035 58 10 12.0 16.0 0.00 0.01 0.01 93 1011.0
20260506120528 57 21 12.0 16.0 0.00 0.01 0.01 93 1011.0
20260506120035 57 14 8.0 14.0 0.00 0.01 0.01 93 1011.0
20260506115530 57 4 9.0 18.0 0.00 0.01 0.01 94 1011.0
20260506115036 57 14 12.0 18.0 0.00 0.01 0.01 94 1011.0
20260506114536 58 11 12.0 16.0 0.00 0.01 0.01 94 1011.1
20260506114036 58 31 9.0 12.0 0.00 0.01 0.01 94 1011.0
20260506113529 58 15 11.0 16.0 0.00 0.01 0.01 94 1011.0
20260506113035 57 352 9.0 14.0 0.00 0.01 0.01 94 1011.0
20260506112536 57 16 7.0 12.0 0.00 0.01 0.01 94 1011.0
20260506112028 57 354 15.0 20.0 0.00 0.01 0.01 94 1011.0
20260506111535 58 349 8.0 18.0 0.00 0.01 0.01 94 1011.1
20260506111035 58 25 14.0 20.0 0.00 0.01 0.01 94 1011.0
20260506110536 57 351 15.0 22.0 0.00 0.01 0.01 95 1011.1
20260506110036 57 10 8.0 14.0 0.00 0.01 0.01 95 1011.1
20260506105535 58 9 12.0 16.0 0.00 0.01 0.01 95 1011.1